Waarnemingen

Advertentie
Mijn weer
Tain Range, Groot Brittannië (3062): temperatuur & dauwpunt: 30.06.2020 20:00:00 - 06.07.2020 20:00:00 (BST)Tain Range, Groot Brittannië (3062): temperatuur -20cm & temperatuur -100cm: 30.06.2020 20:00:00 - 06.07.2020 20:00:00 (BST)Tain Range, Groot Brittannië (3062): windsnelheid & windstoten: 30.06.2020 20:00:00 - 06.07.2020 20:00:00 (BST)Tain Range, Groot Brittannië (3062): windrichting: 30.06.2020 20:00:00 - 06.07.2020 20:00:00 (BST)Tain Range, Groot Brittannië (3062): luchtdruk: 30.06.2020 20:00:00 - 06.07.2020 20:00:00 (BST)Tain Range, Groot Brittannië (3062): zicht: 30.06.2020 20:00:00 - 06.07.2020 20:00:00 (BST)Tain Range, Groot Brittannië (3062): neerslag: 30.06.2020 20:00:00 - 06.07.2020 20:00:00 (BST)
Datum & Tijd tt [°C] td [°C] tt -20cm [°C] tt -100cm [°C] ff [km/u] ff [kn] fx [km/u] fx [kn] dd ppp [hPa] vv [km] rr [mm]
06.07.2020 20:00:00 12,7 6,6 - - 24 13 - - W 1015,7 50 0,0
06.07.2020 19:00:00 14,6 5,7 - - 24 13 - - W 1015,3 50 0,0
06.07.2020 18:00:00 14,5 6,5 - - 24 13 48 26 WNW 1015,7 45 0,0
06.07.2020 17:00:00 14,1 5,4 - - 34 18 48 26 W 1015,7 40 0,0
06.07.2020 16:00:00 13,5 7,5 - - 34 18 48 26 WNW 1015,7 45 0,0
06.07.2020 15:00:00 14,2 6,3 - - 28 15 - - WNW 1015,5 40 0,0
06.07.2020 14:00:00 14,3 7,3 - - 31 17 - - WNW 1015,4 35 0,0
06.07.2020 13:00:00 13,4 8,5 - - 29 16 50 27 WNW 1015,4 40 0,0
06.07.2020 12:00:00 14,2 8,5 - - 28 15 - - WNW 1014,8 25 0,0
06.07.2020 11:00:00 13,5 7,2 - - 34 18 - - NW 1014,1 29 0,6
06.07.2020 10:00:00 12,7 7,3 14,0 12,7 31 17 55 30 WNW 1013,5 28 0,0
06.07.2020 09:00:00 12,4 6,6 - - 44 24 55 30 NW 1012,3 40 0,0
06.07.2020 08:00:00 11,5 7,9 - - 29 16 - - NW 1011,5 26 0,0
06.07.2020 07:00:00 10,9 8,0 - - 22 12 - - WNW 1010,2 24 0,0
06.07.2020 06:00:00 10,4 7,8 - - 24 13 - - NW 1009,2 50 0,0
06.07.2020 05:00:00 10,5 8,4 - - 24 13 - - WNW 1007,8 40 0,0
06.07.2020 04:00:00 10,2 9,0 - - 21 11 - - NW 1006,5 45 0,0
06.07.2020 03:00:00 10,9 7,9 - - 26 14 - - NW 1005,4 40 0,0
06.07.2020 02:00:00 10,6 8,0 - - 18 10 48 26 NW 1004,4 50 0,0
06.07.2020 01:00:00 10,8 8,2 - - 28 15 - - WNW 1002,8 50 0,0
06.07.2020 00:00:00 10,7 7,9 - - 28 15 - - WNW 1001,9 40 0,0
05.07.2020 23:00:00 10,6 8,1 - - 21 11 - - WNW 1001,0 50 0,0
05.07.2020 22:00:00 10,8 8,0 - - 22 12 - - WNW 1000,2 45 0,0
05.07.2020 21:00:00 11,8 8,0 - - 22 12 - - WNW 999,0 50 0,0
05.07.2020 20:00:00 11,4 9,1 - - 26 14 - - WNW 998,0 50 0,6
05.07.2020 19:00:00 12,9 8,1 - - 28 15 - - WNW 996,9 45 0,0
05.07.2020 18:00:00 12,9 8,3 - - 31 17 - - WNW 996,3 50 0,0
05.07.2020 17:00:00 15,2 7,4 - - 31 17 48 26 WNW 995,5 40 0,0
05.07.2020 16:00:00 14,1 7,9 - - 29 16 - - NW 995,1 45 0,0
05.07.2020 15:00:00 13,6 8,3 - - 21 11 - - NW 994,9 40 0,0
05.07.2020 14:00:00 13,9 7,0 - - 24 13 - - W 994,7 50 0,2
05.07.2020 13:00:00 14,9 9,2 - - 21 11 - - W 994,3 30 0,0
05.07.2020 12:00:00 12,1 8,0 - - 15 8 - - W 994,7 50 0,4
05.07.2020 11:00:00 12,0 8,5 - - 8 4 - - NW 994,3 50 0,0
05.07.2020 10:00:00 11,5 8,8 14,2 12,7 8 4 - - W 994,1 50 0,0
05.07.2020 09:00:00 10,9 8,4 - - 9 5 - - W 994,0 45 0,0
05.07.2020 08:00:00 10,4 8,2 - - 18 10 - - WNW 993,6 50 0,0
05.07.2020 07:00:00 10,4 8,2 - - 16 9 - - W 992,9 50 0,0
05.07.2020 06:00:00 9,9 8,5 - - 16 9 - - WNW 992,1 50 0,0
05.07.2020 05:00:00 9,9 8,8 - - 21 11 - - WNW 991,4 50 0,2
05.07.2020 04:00:00 9,9 9,3 - - 18 10 - - NNW 991,2 45 0,8
05.07.2020 03:00:00 10,1 9,4 - - 13 7 - - N 991,2 7 1,4
05.07.2020 02:00:00 10,4 9,8 - - 13 7 - - O 991,4 23 2,0
05.07.2020 01:00:00 10,6 10,1 - - 15 8 - - O 992,4 9 2,6
05.07.2020 00:00:00 10,6 10,2 - - 4 2 - - W 993,6 11 2,0
04.07.2020 23:00:00 10,5 9,9 - - 9 5 - - N 994,9 6 2,0
04.07.2020 22:00:00 11,9 10,5 - - 8 4 - - OZO 996,5 28 0,0
04.07.2020 21:00:00 12,0 10,6 - - 5 3 - - O 997,0 50 0,0
04.07.2020 20:00:00 12,8 10,4 - - 5 3 - - Z 998,6 50 0,0
04.07.2020 19:00:00 13,2 9,9 - - 13 7 - - ZZO 999,3 50 0,0
04.07.2020 18:00:00 14,0 8,6 - - 9 5 - - NW 999,7 40 0,0
04.07.2020 17:00:00 13,3 10,7 - - 9 5 - - WNW 1000,6 16 0,0
04.07.2020 16:00:00 12,0 11,1 - - 15 8 - - WNW 1001,4 45 1,8
04.07.2020 15:00:00 12,1 10,3 - - 26 14 - - WNW 1001,3 4,9 0,0
04.07.2020 14:00:00 13,9 10,7 - - 13 7 - - ZZW 1001,2 50 0,0
04.07.2020 13:00:00 12,4 10,4 - - 16 9 - - ZW 1001,7 50 0,0
04.07.2020 12:00:00 11,8 10,5 - - 9 5 - - ZW 1001,9 45 0,4
04.07.2020 11:00:00 11,4 10,4 - - 9 5 - - ZZW 1001,8 21 1,6
04.07.2020 10:00:00 11,2 9,8 14,2 12,7 9 5 - - WZW 1002,1 5 0,6
04.07.2020 09:00:00 11,6 9,0 - - 11 6 - - ZW 1001,9 50 0,0
04.07.2020 08:00:00 11,7 9,0 - - 15 8 - - Z 1001,6 50 0,0
04.07.2020 07:00:00 11,6 9,8 - - 5 3 - - ZZW 1001,9 50 0,0
04.07.2020 06:00:00 10,6 9,0 - - 13 7 - - WZW 1002,4 50 0,0
04.07.2020 05:00:00 8,8 7,6 - - 8 4 - - Z 1002,2 40 0,0
04.07.2020 04:00:00 10,0 8,1 - - 8 4 - - WZW 1002,3 50 0,0
04.07.2020 03:00:00 9,1 7,6 - - 8 4 - - WZW 1002,2 50 0,0
04.07.2020 02:00:00 9,6 8,3 - - 9 5 - - W 1002,1 40 0,0
04.07.2020 01:00:00 8,7 8,0 - - 5 3 - - ZW 1002,3 40 0,0
04.07.2020 00:00:00 8,4 7,1 - - 2 1 - - NNW 1002,2 45 0,0
03.07.2020 23:00:00 11,2 8,7 - - 9 5 - - WNW 1002,1 50 0,0
03.07.2020 22:00:00 12,2 9,4 - - 11 6 - - WNW 1001,6 40 0,0
03.07.2020 21:00:00 13,9 11,2 - - 4 2 - - WZW 1001,2 50 0,0
03.07.2020 20:00:00 13,3 10,7 - - 4 2 - - ZW 1000,9 50 0,0
03.07.2020 19:00:00 12,2 11,1 - - 13 7 - - WZW 1000,7 27 0,2
03.07.2020 18:00:00 11,9 10,8 - - 13 7 - - WZW 1000,6 11 1,4
03.07.2020 17:00:00 12,4 11,2 - - 8 4 - - ZW 1000,4 11 0,8
03.07.2020 16:00:00 12,8 10,0 - - 4 2 - - ZW 1000,2 45 0,0
03.07.2020 15:00:00 12,8 10,6 - - 9 5 - - O 1000,1 45 0,0
03.07.2020 14:00:00 12,2 9,6 - - 11 6 - - O 1000,6 50 0,0
03.07.2020 13:00:00 11,5 8,7 - - 18 10 - - OZO 1001,1 28 0,0
03.07.2020 12:00:00 11,6 7,7 - - 16 9 - - ZO 1001,7 45 0,0
03.07.2020 11:00:00 11,4 7,4 - - 18 10 - - ZO 1002,0 40 0,0
03.07.2020 10:00:00 11,1 6,6 14,7 12,9 18 10 - - ZO 1002,6 35 0,0
03.07.2020 09:00:00 10,0 6,7 - - 16 9 - - Z 1003,3 35 0,0
03.07.2020 08:00:00 9,5 7,3 - - 13 7 - - Z 1003,9 45 0,0
03.07.2020 07:00:00 9,2 7,5 - - 8 4 - - Z 1004,7 45 0,0
03.07.2020 06:00:00 8,4 7,0 - - 9 5 - - ZZW 1005,5 40 0,2
03.07.2020 05:00:00 8,5 6,7 - - 9 5 - - ZZW 1006,1 40 0,0
03.07.2020 04:00:00 8,6 6,5 - - 5 3 - - WZW 1006,7 50 0,0
03.07.2020 03:00:00 8,9 6,6 - - 8 4 - - ZW 1007,2 50 0,0
03.07.2020 02:00:00 9,4 5,5 - - 8 4 - - NNW 1007,6 50 0,0
03.07.2020 01:00:00 9,9 5,5 - - 5 3 - - N 1008,1 35 0,0
03.07.2020 00:00:00 10,5 5,1 - - 11 6 - - NNW 1008,6 50 0,0
02.07.2020 23:00:00 10,9 5,0 - - 11 6 - - NNW 1009,1 45 0,0
02.07.2020 22:00:00 11,5 5,4 - - 11 6 - - NW 1009,4 40 0,0
02.07.2020 21:00:00 12,3 6,5 - - 11 6 - - NNW 1009,6 35 0,0
02.07.2020 20:00:00 13,3 6,6 - - 8 4 - - NNW 1009,7 45 0,0
02.07.2020 19:00:00 13,4 7,0 - - 11 6 - - ZZO 1009,7 50 0,0
02.07.2020 18:00:00 13,7 6,3 - - 11 6 - - ZO 1009,6 45 0,0
02.07.2020 17:00:00 14,8 5,9 - - 5 3 - - ONO 1009,8 50 0,0
02.07.2020 16:00:00 13,6 4,6 - - 11 6 - - ONO 1010,2 35 0,0
02.07.2020 15:00:00 14,5 4,6 - - 8 4 - - NNW 1010,3 30 0,0
02.07.2020 14:00:00 13,7 4,1 - - 8 4 - - WZW 1010,8 45 0,0
02.07.2020 13:00:00 12,6 5,3 - - 13 7 - - W 1011,0 50 0,0
02.07.2020 12:00:00 12,0 4,6 - - 13 7 - - WNW 1010,8 45 0,0
02.07.2020 11:00:00 11,8 4,2 - - 9 5 - - WNW 1010,9 50 0,0
02.07.2020 10:00:00 10,9 5,3 14,7 12,7 11 6 - - NW 1010,9 45 0,0
02.07.2020 09:00:00 10,4 4,2 - - 13 7 - - NNW 1010,7 50 0,0
02.07.2020 08:00:00 10,1 4,0 - - 9 5 - - WNW 1010,6 50 0,0
02.07.2020 07:00:00 9,4 5,1 - - 11 6 - - NW 1010,2 40 0,0
02.07.2020 06:00:00 8,6 5,6 - - 8 4 - - NW 1009,9 50 0,0
02.07.2020 05:00:00 7,5 5,0 - - 9 5 - - NW 1009,7 35 0,0
02.07.2020 04:00:00 8,2 4,9 - - 11 6 - - NNW 1009,7 50 0,0
02.07.2020 03:00:00 8,0 5,5 - - 9 5 - - NW 1009,7 50 0,0
02.07.2020 02:00:00 7,6 5,2 - - 9 5 - - NNW 1009,7 50 0,0
02.07.2020 01:00:00 8,1 4,9 - - 8 4 - - NW 1009,5 40 0,0
02.07.2020 00:00:00 9,5 5,0 - - 13 7 - - N 1009,5 50 0,0
01.07.2020 23:00:00 9,8 5,1 - - 13 7 - - NNO 1009,1 45 0,0
01.07.2020 22:00:00 10,5 6,7 - - 13 7 - - O 1008,5 50 0,0
01.07.2020 21:00:00 11,0 6,6 - - 9 5 - - ONO 1008,1 40 0,0
01.07.2020 20:00:00 11,4 6,3 - - 8 4 - - O 1007,9 45 0,0
01.07.2020 19:00:00 11,7 7,0 - - 13 7 - - O 1007,6 35 0,0
01.07.2020 18:00:00 12,4 7,5 - - 13 7 - - ONO 1007,5 40 0,0
01.07.2020 17:00:00 12,9 7,2 - - 13 7 - - ONO 1007,3 28 0,0
01.07.2020 16:00:00 12,3 7,5 - - 15 8 - - O 1007,1 28 0,0
01.07.2020 15:00:00 12,6 6,8 - - 13 7 - - ONO 1006,7 45 0,0
01.07.2020 14:00:00 12,9 6,9 - - 11 6 - - OZO 1006,5 35 0,0
01.07.2020 13:00:00 12,3 6,9 - - 9 5 - - ONO 1006,4 28 0,0
01.07.2020 12:00:00 11,2 7,5 - - 9 5 - - ONO 1006,0 35 0,0
01.07.2020 11:00:00 12,4 6,6 - - 11 6 - - NO 1005,6 24 0,0
01.07.2020 10:00:00 11,5 7,1 14,7 12,5 15 8 - - NO 1005,4 30 0,0
01.07.2020 09:00:00 11,3 6,9 - - 21 11 - - NO 1005,2 22 0,0
01.07.2020 08:00:00 10,6 7,5 - - 21 11 - - NO 1004,8 18 0,0
01.07.2020 07:00:00 10,1 8,3 - - 21 11 - - NO 1004,4 25 0,0
01.07.2020 06:00:00 9,8 8,2 - - 26 14 - - NO 1004,0 19 0,2
01.07.2020 05:00:00 10,2 9,1 - - 22 12 - - NO 1003,7 30 0,2
01.07.2020 04:00:00 10,6 9,8 - - 18 10 - - NO 1003,4 40 0,2
01.07.2020 03:00:00 10,8 9,8 - - 13 7 - - NNW 1003,2 50 0,0
01.07.2020 02:00:00 10,7 9,7 - - 15 8 - - NNW 1003,2 40 0,0
01.07.2020 01:00:00 10,6 9,4 - - 13 7 - - NNW 1003,3 45 0,0
01.07.2020 00:00:00 10,8 9,4 - - 13 7 - - NW 1003,2 45 0,0
30.06.2020 23:00:00 11,6 9,8 - - 13 7 - - N 1003,2 50 0,0
30.06.2020 22:00:00 12,3 10,6 - - 18 10 - - NNO 1002,7 45 0,0
30.06.2020 21:00:00 12,5 12,0 - - 4 2 - - NNO 1002,2 45 1,0
30.06.2020 20:00:00 12,6 11,9 - - 5 3 - - NW 1001,9 6 1,4

tt = temperatuur
td = dauwpunt
tt -20cm = temperatuur -20cm
tt -100cm = temperatuur -100cm
ff = windsnelheid
fx = windstoten
dd = windrichting
ppp = luchtdruk
vv = zicht
rr = neerslag

Weerstations in de omgeving